sat.trackr.live / text

‹ back to catalog

STARLINK-32927

NORAD 63094 · 2025-037T

PAYLOAD ACTIVE UNKNOWN

§ Identity

Operator
Country
US
Launch date
2025-02-23
Launch site
AFWTR
Launch vehicle
Mass (kg)
RCS (m²)

Purposes: comms

External: N2YO · Heavens-Above · Gunter

§ Orbital elements

Epoch: 2026-05-25T03:54:58.707072Z

Period
96.11 min
Inclination
70.0006°
Eccentricity
0.0004444
Mean motion
14.98337617 rev/d
Perigee alt
568.9 km
Apogee alt
575.1 km
Semi-major
6,950.2 km
B*
9.7437e-5
RAAN
161.7755°
Arg perigee
265.6988°
Mean anomaly
94.3664°
Rev number
7,000

§ Raw data

STARLINK-329271 63094U 25037T   26145.16317948  .00001070  00000+0  97437-4 0  99972 63094  70.0006 161.7755 0004444 265.6988  94.3664 14.98337617 70007

JSON: /api/v1/satellites/63094 · /tle

For live sub-satellite position, see the globe view (requires WebGL).

§ Visibility from observer

Set your observer location to see the next 7 days of passes ≥ 10°. The values pass through the URL so the page stays shareable.

No JS? Fill the form by hand. The geolocation button needs JavaScript.